Regional Weather Roundup
Issued by NWS

Home | Current Version | Previous Version | Graphics & Text | Print | Product List | Glossary On
Versions: 1 2 3 4 5 6 7 8 9 10 11 12 13 14 15 16 17 18 19 20 21 22 23 24 25 26 27 28 29 30 31 32 33 34 35 36 37 38 39 40 41 42 43 44 45 46 47 48 49 50
000
ASUS43 KLMK 140910
RWRKY
KENTUCKY REGIONAL WEATHER ROUNDUP
NATIONAL WEATHER SERVICE LOUISVILLE KY
400 AM EST THU DEC 14 2017

NOTE "FAIR" INDICATES FEW OR NO CLOUDS BELOW 12,000 FEET
WITH NO SIGNIFICANT WEATHER AND/OR OBSTRUCTIONS TO VISIBILITY.

KYZ001>023-026-027-061>063-070>075-141000-
WESTERN AND SOUTH CENTRAL KENTUCKY

CITY           SKY/WX    TMP DP  RH WIND       PRES   REMARKS
PADUCAH        CLEAR     38  25  59 N13       29.89R WCI  30
HENDERSON      CLOUDY    37  25  61 N13G24    29.90S WCI  29
OWENSBORO      CLOUDY    37  25  61 NW13G21   29.89R WCI  29
HOPKINSVILLE   CLEAR     35  28  75 N6        29.87R WCI  30
BOWLING GREEN  CLOUDY    39  28  64 NW7       29.86R WCI  34
GLASGOW        MOCLDY    37  28  69 NW8       29.85R WCI  31
$$

KYZ024-025-028>034-038-045-046-053-141000-
NORTH CENTRAL KENTUCKY

CITY           SKY/WX    TMP DP  RH WIND       PRES   REMARKS
LOUISVILLE/SDF CLOUDY    38  25  59 NW14G23   29.84R WCI  30
LOUISVILLE/LOU CLOUDY    37  27  67 NW12G23   29.83R WCI  29
FORT KNOX      CLOUDY    36  26  68 W13G21    29.82R WCI  27
$$

KYZ035>037-039>044-047>052-055>060-089>105-141000-
NORTHEAST KENTUCKY

CITY           SKY/WX    TMP DP  RH WIND       PRES   REMARKS
LEXINGTON      CLOUDY    38  27  64 W13       29.78R WCI  30
COVINGTON      CLOUDY    31  22  69 NW22      29.78R WCI  18
FRANKFORT      CLOUDY    37  24  59 NW14G22   29.79R WCI  28
$$

KYZ054-064>069-076>088-106>120-141000-
SOUTHEAST KENTUCKY

CITY           SKY/WX    TMP DP  RH WIND       PRES   REMARKS
JACKSON        CLOUDY    41  29  62 W12G22    29.71R
LONDON         MOCLDY    41  27  57 W13G24    29.77R
SOMERSET       CLOUDY    37  30  75 W14G20    29.81R WCI  29
MIDDLESBORO    CLEAR     43  26  51 W7        29.77R
MONTICELLO     MOSUNNY   40  30  67 W14       29.83R WCI  32
$$





USA.gov is the U.S. government's official web portal to all federal, state and local government web resources and services.